, AK

(GMT )
Golovin

Weather History for PAGL - November, 2012

Change the Weather History Date:

Wednesday, November 14, 2012

  Actual Average Record
Temperature  
Mean Temperature 18 °F -  
Max Temperature 26 °F - - ()
Min Temperature 10 °F - - ()
Degree Days  
Heating Degree Days 47    
Moisture  
Dew Point -1 °F    
Average Humidity 44    
Maximum Humidity 62    
Minimum Humidity 31    
Precipitation  
Precipitation 0.00 in - - ()
Sea Level Pressure  
Sea Level Pressure 29.73 in    
Wind  
Wind Speed 26 mph (NNE)    
Max Wind Speed 38 mph    
Max Gust Speed 48 mph    
Visibility 9 miles    
Events      
Averages and records for this station are not official NWS values.
T = Trace of Precipitation, MM = Missing Value Source: NWS Daily Summary

Daily Weather History Graph

Daily Weather History Graph

Search for Another Location

Airport or City:

Trip Planner

Search our weather history database for the weather conditions in past years. The results will help you decide how hot, cold, wet, or windy it might be!

Date:

Astronomy

Nov. 14, 2012 Rise Set
Actual Time 10:23 AM AKST 4:48 PM AKST
Civil Twilight 9:22 AM AKST 5:50 PM AKST
Nautical Twilight 8:20 AM AKST 6:51 PM AKST
Astronomical Twilight 7:23 AM AKST 7:48 PM AKST
Moon 12:01 PM AKST (11/14) 5:13 PM AKST (11/14)
Length of Visible Light 8h 27m
Length of Day
6h 24m
New Moon, 1% of the Moon is Illuminated
Nov 14
New Moon
Nov 20
First Quarter
Nov 28
Full
Dec 6
Last Quarter
Dec 12
New

Hourly Weather History & Observations

Time (AKST) Temp. Windchill Dew Point Humidity Pressure Visibility Wind Dir Wind Speed Gust Speed Precip Events Conditions
12:16 AM 26.6 °F 9.1 °F 1.4 °F 34% 29.57 in 10.0 mi ENE 35.7 mph 47.2 mph N/A   Overcast
12:36 AM 26.6 °F 8.7 °F 1.4 °F 34% 29.56 in 10.0 mi ENE 38.0 mph 43.7 mph N/A   Overcast
12:56 AM 26.6 °F 8.9 °F 1.4 °F 34% 29.57 in 10.0 mi ENE 36.8 mph 46.0 mph N/A   Overcast
1:16 AM 26.6 °F 9.6 °F 1.4 °F 34% 29.57 in 10.0 mi ENE 33.4 mph 43.7 mph N/A   Overcast
1:36 AM 26.6 °F 9.8 °F 1.4 °F 34% 29.57 in 10.0 mi ENE 32.2 mph 48.3 mph N/A   Overcast
1:56 AM 24.8 °F 7.1 °F -0.4 °F 34% 29.58 in 10.0 mi ENE 33.4 mph 43.7 mph N/A   Overcast
2:16 AM 24.8 °F 6.8 °F 1.4 °F 36% 29.57 in 10.0 mi ENE 34.5 mph 42.6 mph N/A   Overcast
2:36 AM 24.8 °F 6.6 °F 1.4 °F 36% 29.56 in 10.0 mi NE 35.7 mph 44.9 mph N/A   Overcast
2:56 AM 24.8 °F 6.6 °F -0.4 °F 34% 29.55 in 10.0 mi NE 35.7 mph 48.3 mph N/A   Overcast
3:36 AM 24.8 °F 7.6 °F -0.4 °F 34% 29.55 in 10.0 mi ENE 31.1 mph 40.3 mph N/A   Overcast
4:16 AM 26.6 °F 10.0 °F -0.4 °F 31% 29.56 in 10.0 mi ENE 31.1 mph 43.7 mph N/A   Overcast
4:36 AM 24.8 °F 7.9 °F -0.4 °F 34% 29.56 in 10.0 mi ENE 29.9 mph 36.8 mph N/A   Overcast
4:56 AM 26.6 °F 9.3 °F -0.4 °F 31% 29.55 in 10.0 mi ENE 34.5 mph 43.7 mph N/A   Scattered Clouds
5:16 AM 26.6 °F 9.6 °F -0.4 °F 31% 29.55 in 10.0 mi ENE 33.4 mph 43.7 mph N/A   Mostly Cloudy
5:36 AM 26.6 °F 10.8 °F -0.4 °F 31% 29.56 in 10.0 mi NE 27.6 mph 41.4 mph N/A   Overcast
5:56 AM 24.8 °F 8.7 °F -0.4 °F 34% 29.57 in 10.0 mi NE 26.5 mph 36.8 mph N/A   Overcast
6:16 AM 24.8 °F 8.1 °F -0.4 °F 34% 29.57 in 10.0 mi NE 28.8 mph 39.1 mph N/A   Overcast
6:36 AM 24.8 °F 7.9 °F -0.4 °F 34% 29.57 in 10.0 mi NE 29.9 mph 40.3 mph N/A   Mostly Cloudy
6:56 AM 24.8 °F 7.6 °F -2.2 °F 31% 29.57 in 10.0 mi NE 31.1 mph 40.3 mph N/A   Scattered Clouds
7:16 AM 24.8 °F 7.3 °F -2.2 °F 31% 29.57 in 10.0 mi ENE 32.2 mph 43.7 mph N/A   Mostly Cloudy
7:36 AM 24.8 °F 11.1 °F -2.2 °F 31% 29.60 in 10.0 mi NNE 18.4 mph 34.5 mph N/A   Overcast
7:56 AM 23.0 °F 10.1 °F -0.4 °F 36% 29.62 in 10.0 mi NNE 15.0 mph 20.7 mph N/A   Mostly Cloudy
8:16 AM 23.0 °F 13.9 °F -0.4 °F 36% 29.63 in 10.0 mi NNW 8.1 mph - N/A   Partly Cloudy
8:36 AM 23.0 °F 15.8 °F -0.4 °F 36% 29.63 in 10.0 mi North 5.8 mph 17.3 mph N/A   Partly Cloudy
8:56 AM 21.2 °F 10.9 °F -0.4 °F 39% 29.64 in 10.0 mi North 9.2 mph - N/A   Partly Cloudy
9:36 AM 21.2 °F 13.6 °F -0.4 °F 39% 29.66 in 10.0 mi NNE 5.8 mph - N/A   Clear
9:56 AM 21.2 °F 3.9 °F -0.4 °F 39% 29.64 in 10.0 mi NE 26.5 mph 40.3 mph N/A   Clear
10:16 AM 19.4 °F 1.4 °F -2.2 °F 39% 29.66 in 10.0 mi NE 26.5 mph 42.6 mph N/A   Clear
10:36 AM 19.4 °F -0.6 °F -2.2 °F 39% 29.67 in 10.0 mi NE 34.5 mph 43.7 mph N/A   Clear
10:56 AM 19.4 °F 1.8 °F -2.2 °F 39% 29.69 in 10.0 mi NE 25.3 mph 38.0 mph N/A   Clear
11:16 AM 19.4 °F 2.8 °F -0.4 °F 42% 29.70 in 10.0 mi NNE 21.9 mph 29.9 mph N/A   Clear
11:36 AM 21.2 °F 4.5 °F -2.2 °F 36% 29.70 in 10.0 mi NNE 24.2 mph 35.7 mph N/A   Clear
11:56 AM 21.2 °F 4.9 °F -2.2 °F 36% 29.71 in 10.0 mi NNE 23.0 mph 36.8 mph N/A   Clear
12:16 PM 21.2 °F 3.3 °F -2.2 °F 36% 29.71 in 10.0 mi NNE 28.8 mph 36.8 mph N/A   Clear
12:36 PM 17.6 °F 2.2 °F -4.0 °F 38% 29.73 in 7.0 mi North 17.3 mph 26.5 mph N/A   Clear
12:56 PM 19.4 °F 3.2 °F 1.4 °F 46% 29.73 in 9.0 mi North 20.7 mph 28.8 mph N/A   Clear
1:16 PM 19.4 °F 2.8 °F -0.4 °F 42% 29.73 in 10.0 mi NNE 21.9 mph 28.8 mph N/A   Clear
1:36 PM 19.4 °F 3.6 °F -0.4 °F 42% 29.75 in 5.0 mi North 19.6 mph 26.5 mph N/A   Clear
1:56 PM 15.8 °F -1.1 °F -2.2 °F 45% 29.74 in 5.0 mi North 19.6 mph 27.6 mph N/A   Clear
2:16 PM 14.0 °F -3.9 °F 1.4 °F 57% 29.75 in 7.0 mi North 20.7 mph 28.8 mph N/A   Clear
2:36 PM 14.0 °F -3.4 °F -0.4 °F 53% 29.75 in 6.0 mi North 19.6 mph 26.5 mph N/A   Clear
2:56 PM 14.0 °F -4.3 °F -0.4 °F 53% 29.77 in 5.0 mi North 21.9 mph 32.2 mph N/A   Clear
3:16 PM 14.0 °F -3.9 °F -0.4 °F 53% 29.77 in 5.0 mi North 20.7 mph 27.6 mph N/A   Clear
3:36 PM 15.8 °F 2.1 °F -0.4 °F 49% 29.79 in 7.0 mi North 12.7 mph 26.5 mph N/A   Clear
3:56 PM 15.8 °F -0.2 °F -2.2 °F 45% 29.80 in 8.0 mi North 17.3 mph 26.5 mph N/A   Clear
4:16 PM 15.8 °F 3.4 °F -0.4 °F 49% 29.80 in 9.0 mi North 10.4 mph 19.6 mph N/A   Clear
4:56 PM 15.8 °F 2.7 °F 1.4 °F 53% 29.81 in 10.0 mi NW 11.5 mph 18.4 mph N/A   Clear
5:16 PM 14.0 °F -0.8 °F -0.4 °F 53% 29.82 in 9.0 mi NNW 13.8 mph 20.7 mph N/A   Clear
5:36 PM 14.0 °F 1.2 °F -0.4 °F 53% 29.84 in 10.0 mi NNW 10.4 mph - N/A   Clear
5:56 PM 14.0 °F 2.9 °F -2.2 °F 49% 29.85 in 10.0 mi NW 8.1 mph - N/A   Clear
6:16 PM 12.2 °F 1.7 °F 1.4 °F 62% 29.86 in 10.0 mi NW 6.9 mph - N/A   Clear
6:36 PM 12.2 °F 0.7 °F -2.2 °F 53% 29.86 in 10.0 mi NNE 8.1 mph - N/A   Clear
7:16 PM 12.2 °F -4.3 °F -0.4 °F 57% 29.89 in 10.0 mi North 16.1 mph 23.0 mph N/A   Clear
7:36 PM 12.2 °F -2.5 °F -0.4 °F 57% 29.91 in 10.0 mi North 12.7 mph 18.4 mph N/A   Clear
7:56 PM 12.2 °F -6.3 °F -0.4 °F 57% 29.91 in 10.0 mi North 20.7 mph - N/A   Clear
8:16 PM 12.2 °F -4.8 °F -0.4 °F 57% 29.92 in 10.0 mi NNW 17.3 mph 26.5 mph N/A   Clear
8:36 PM 12.2 °F -3.7 °F -0.4 °F 57% 29.93 in 10.0 mi NNW 15.0 mph 19.6 mph N/A   Clear
8:56 PM 12.2 °F -4.8 °F -0.4 °F 57% 29.93 in 10.0 mi North 17.3 mph 23.0 mph N/A   Clear
9:16 PM 12.2 °F -4.8 °F -2.2 °F 53% 29.94 in 10.0 mi North 17.3 mph 23.0 mph N/A   Clear
9:36 PM 12.2 °F -6.7 °F -0.4 °F 57% 29.94 in 10.0 mi NNE 21.9 mph 25.3 mph N/A   Clear
10:16 PM 12.2 °F -0.2 °F -0.4 °F 57% 29.97 in 10.0 mi North 9.2 mph - N/A   Clear
10:36 PM 10.4 °F 0.8 °F -2.2 °F 57% 29.98 in 10.0 mi North 5.8 mph - N/A   Clear
10:56 PM 10.4 °F -2.4 °F -2.2 °F 57% 29.99 in 10.0 mi NW 9.2 mph - N/A   Clear
11:16 PM 12.2 °F 2.9 °F -0.4 °F 57% 29.99 in 10.0 mi NNE 5.8 mph - N/A   Clear
11:36 PM 12.2 °F -0.2 °F -0.4 °F 57% 29.99 in 10.0 mi North 9.2 mph - N/A   Clear
11:56 PM 12.2 °F -1.0 °F -2.2 °F 53% 30.00 in 10.0 mi NNE 10.4 mph 20.7 mph N/A   Clear